Weather History for Orange, MA

Change the Weather History Date:

Friday, November 16, 2012

  Actual Average Record
Temperature  
Mean Temperature 33 °F -  
Max Temperature 42 °F 44 °F 68 °F (2006)
Min Temperature 24 °F 26 °F 7 °F (1996)
Degree Days  
Heating Degree Days 32    
Moisture  
Dew Point 23 °F    
Average Humidity 75    
Maximum Humidity 92    
Minimum Humidity 43    
Precipitation  
Precipitation 0.00 in - - ()
Sea Level Pressure  
Sea Level Pressure 30.36 in    
Wind  
Wind Speed 2 mph (NW)    
Max Wind Speed 14 mph    
Max Gust Speed -    
Visibility 10 miles    
Events      
Averages and records for this station are not official NWS values.
T = Trace of Precipitation, MM = Missing Value Source: NWS Daily Summary

Daily Weather History Graph

Daily Weather History Graph

Search for Another Location

Airport:

Trip Planner

Search our weather history database for the weather conditions in past years. The results will help you decide how hot, cold, wet, or windy it might be!

Date:

Astronomy

Nov. 16, 2012 Rise Set
Actual Time 6:42 AM EST 4:25 PM EST
Civil Twilight 6:11 AM EST 4:55 PM EST
Nautical Twilight 5:37 AM EST 5:29 PM EST
Astronomical Twilight 5:04 AM EST 6:03 PM EST
Moon 9:35 AM EST (11/16) 7:20 PM EST (11/16)
Length of Visible Light 10h 43m
Length of Day
9h 43m
Waxing Crescent, 11% of the Moon is Illuminated
Nov 16
Waxing Crescent
Nov 20
First Quarter
Nov 28
Full
Dec 6
Last Quarter
Dec 13
New

Hourly Weather History & Observations

Time (EST) Temp. Windchill Dew Point Humidity Pressure Visibility Wind Dir Wind Speed Gust Speed Precip Events Conditions
12:52 AM 26.1 °F - 24.1 °F 92% 30.31 in 10.0 mi Calm Calm - N/A   Clear
1:52 AM 25.0 °F - 23.0 °F 92% 30.32 in 10.0 mi Calm Calm - N/A   Clear
2:52 AM 26.1 °F - 24.1 °F 92% 30.31 in 9.0 mi Calm Calm - N/A   Clear
3:52 AM 25.0 °F - 23.0 °F 92% 30.32 in 10.0 mi Calm Calm - N/A   Clear
4:52 AM 25.0 °F - 23.0 °F 92% 30.32 in 10.0 mi Calm Calm - N/A   Clear
5:52 AM 26.1 °F - 24.1 °F 92% 30.32 in 10.0 mi Calm Calm - N/A   Clear
6:52 AM 24.1 °F - 21.9 °F 91% 30.32 in 10.0 mi Calm Calm - N/A   Clear
7:52 AM 25.0 °F - 23.0 °F 92% 30.35 in 10.0 mi Calm Calm - N/A   Clear
8:52 AM 30.9 °F - 27.0 °F 85% 30.35 in 10.0 mi Calm Calm - N/A   Clear
9:52 AM 36.0 °F - 27.0 °F 70% 30.36 in 10.0 mi Calm Calm - N/A   Clear
10:52 AM 42.1 °F 36.6 °F 23.0 °F 47% 30.33 in 10.0 mi NW 9.2 mph - N/A   Clear
11:52 AM 39.9 °F 32.1 °F 21.9 °F 49% 30.32 in 10.0 mi NW 13.8 mph - N/A   Clear
12:52 PM 42.1 °F 36.6 °F 23.0 °F 47% 30.31 in 10.0 mi WNW 9.2 mph - N/A   Clear
1:52 PM 42.1 °F 37.1 °F 21.0 °F 43% 30.32 in 10.0 mi NW 8.1 mph - N/A   Clear
2:52 PM 41.0 °F 35.2 °F 21.0 °F 45% 30.32 in 10.0 mi NW 9.2 mph - N/A   Clear
3:52 PM 39.9 °F 36.7 °F 21.0 °F 47% 30.34 in 10.0 mi North 4.6 mph - N/A   Clear
4:52 PM 37.0 °F - 21.0 °F 52% 30.36 in 10.0 mi Calm Calm - N/A   Clear
5:52 PM 32.0 °F - 23.0 °F 69% 30.38 in 10.0 mi Calm Calm - N/A   Clear
6:52 PM 28.0 °F 24.2 °F 23.0 °F 81% 30.40 in 10.0 mi North 3.5 mph - N/A   Clear
7:52 PM 28.0 °F - 23.0 °F 81% 30.40 in 10.0 mi Calm Calm - N/A   Clear
8:52 PM 27.0 °F - 23.0 °F 85% 30.42 in 10.0 mi Calm Calm - N/A   Clear
9:52 PM 26.1 °F - 23.0 °F 88% 30.44 in 10.0 mi Calm Calm - N/A   Clear
10:52 PM 25.0 °F - 21.9 °F 88% 30.45 in 10.0 mi Calm Calm - N/A   Clear
11:52 PM 28.0 °F 22.8 °F 23.0 °F 81% 30.47 in 10.0 mi NNW 4.6 mph - N/A   Clear